map of IWO home
IWO - Airport
Location
City:  Iwo Jima, Iwo Jima Island, Tokyo, Japan
Name:Iwo Jima AB
ICAO:RJAW
IATA:IWO

Details
Type:Airport (Aerodrome, Airfield)
Use:Military
Latitude:2447'02"N (24.784000)
Longitude:14119'22"E (141.322722)
Datum:WGS 1984
Elevation:384 ft (117 m)
Variation:3.61W (WMM2015 magnetic declination)
-0.07 annual change
Runways:1
Longest:8700 × 200 ft (2652 × 61 m), paved

Time
Time Zone:UTC+9
Local Time:

Weather
METAR:RJAW 170700Z 06008KT 020V090 9999 FEW020 29/24 Q1009 RMK 2CU020 A2981

Related Locations
Nearby:
Farthest:CFB: 12192 mi / 19621 km
Cabo Frio [Intl], RJ, BR

Find:

   beyond  
but within

Other Information
Maps:
NOTAMs:
Links:
Sources:

  
  • flag of Japan
  • flag of Tokyo
  

Airport Diagram

Airport diagram for IWO

Larger airport diagram (OBSOLETE) from NGA

Sectional Chart

Flight Planning
at skyvector.com

Satellite Image

Google Maps Satellite view

 

Copyright © 2004-2018 Karl L. Swartz. All rights reserved.
The Great Circle Mapper name and logo are trademarks of the Great Circle Mapper.
All other trademarks mentioned herein belong to their respective owners.
Please see credits for attibutions and further copyright information.

  Follow gcmap on Facebook Follow gcmap on Twitter Follow gcmap on Google+ GCmap on LinkedIn

hCard Microformat

Geo Microformat